{"data":{"norad_id":40294,"epoch":"2026-09-18T15:48:35.054784Z","epoch_age_seconds":173391,"freshness":"STALE","line1":"1 40294U 14068A   26261.65873906 -.00000074  00000+0  00000+0 0  9999","line2":"2 40294  57.0484  27.3623 0066984  73.8716 286.8719  2.00557440 87088","mean_motion":2.0055744,"eccentricity":0.0066984,"inclination_deg":57.0484,"raan_deg":27.3623,"arg_perigee_deg":73.8716,"mean_anomaly_deg":286.8719,"bstar":0,"rev_number":8708,"period_min":717.99879376203,"perigee_km":20004.839545414,"apogee_km":20360.670503688,"semimajor_km":26560.892024551,"source":"CELESTRAK","updated_at":"2026-09-20T09:00:46.118162Z"}}